Ely, MN

9:12 AM CST on February 25, 2017 (GMT -0600)
Ely Municipal

Weather History for KELO - September, 2012

Change the Weather History Date:

Wednesday, September 12, 2012

  Actual Average Record
Temperature  
Mean Temperature 58 °F -  
Max Temperature 64 °F 66 °F 80 °F (2002)
Min Temperature 51 °F 45 °F 32 °F (2014)
Degree Days  
Heating Degree Days 8    
Growing Degree Days 8 (Base 50)    
Moisture  
Dew Point 33 °F    
Average Humidity 39    
Maximum Humidity 54    
Minimum Humidity 22    
Precipitation  
Precipitation 0.00 in - - ()
Sea Level Pressure  
Sea Level Pressure 29.99 in    
Wind  
Wind Speed 8 mph (WSW)    
Max Wind Speed 21 mph    
Max Gust Speed 31 mph    
Visibility 10 miles    
Events      
Averages and records for this station are not official NWS values.
T = Trace of Precipitation, MM = Missing Value Source: NWS Daily Summary

Daily Weather History Graph

Daily Weather History Graph

Search for Another Location

Airport or City:

Trip Planner

Search our weather history database for the weather conditions in past years. The results will help you decide how hot, cold, wet, or windy it might be!

Date:

Astronomy

Sep. 12, 2012 Rise Set
Actual Time 6:41 AM CDT 7:24 PM CDT
Civil Twilight 6:09 AM CDT 7:55 PM CDT
Nautical Twilight 5:32 AM CDT 8:32 PM CDT
Astronomical Twilight 4:53 AM CDT 9:11 PM CDT
Moon 2:45 AM CDT (9/12) 5:22 PM CDT (9/12)
Length of Visible Light 13h 45m
Length of Day
12h 43m
Waning Crescent, 13% of the Moon is Illuminated
Sep 12
Waning Crescent
Sep 15
New
Sep 22
First Quarter
Sep 29
Full
Oct 8
Last Quarter

Hourly Weather History & Observations

Time (CDT) Temp. Dew Point Humidity Pressure Visibility Wind Dir Wind Speed Gust Speed Precip Events Conditions
12:13 AM 62.6 °F 44.6 °F 52% 29.80 in 10.0 mi WNW 9.2 mph - N/A   Clear
12:33 AM 60.8 °F 41.0 °F 48% 29.82 in 10.0 mi WNW 10.4 mph 18.4 mph N/A   Clear
12:53 AM 60.8 °F 39.2 °F 45% 29.83 in 10.0 mi NW 8.1 mph 20.7 mph N/A   Clear
1:13 AM 59.0 °F 37.4 °F 45% 29.83 in 10.0 mi WNW 9.2 mph 17.3 mph N/A   Clear
1:33 AM 57.2 °F 37.4 °F 48% 29.84 in 10.0 mi NW 5.8 mph - N/A   Clear
1:52 AM 57.2 °F 35.6 °F 44% 29.86 in 10.0 mi WNW 5.8 mph - N/A   Clear
2:13 AM 57.2 °F 35.6 °F 44% 29.89 in 10.0 mi West 5.8 mph - N/A   Clear
2:33 AM 57.2 °F 37.4 °F 48% 29.89 in 10.0 mi WNW 6.9 mph - N/A   Clear
2:53 AM 57.2 °F 37.4 °F 48% 29.90 in 10.0 mi West 4.6 mph - N/A   Clear
3:13 AM 57.2 °F 37.4 °F 48% 29.91 in 10.0 mi West 4.6 mph - N/A   Clear
3:33 AM 55.4 °F 37.4 °F 51% 29.91 in 10.0 mi Calm Calm - N/A   Clear
3:53 AM 55.4 °F 37.4 °F 51% 29.90 in 10.0 mi WNW 4.6 mph - N/A   Clear
4:13 AM 55.4 °F 37.4 °F 51% 29.90 in 10.0 mi WNW 3.5 mph - N/A   Clear
4:33 AM 55.4 °F 37.4 °F 51% 29.90 in 10.0 mi West 5.8 mph - N/A   Clear
4:53 AM 55.4 °F 35.6 °F 47% 29.91 in 10.0 mi West 4.6 mph - N/A   Clear
5:13 AM 57.2 °F 35.6 °F 44% 29.94 in 10.0 mi WSW 6.9 mph - N/A   Scattered Clouds
5:33 AM 57.2 °F 35.6 °F 44% 29.95 in 10.0 mi SW 5.8 mph - N/A   Clear
5:53 AM 55.4 °F 37.4 °F 51% 29.96 in 10.0 mi SSW 5.8 mph - N/A   Scattered Clouds
6:13 AM 55.4 °F 37.4 °F 51% 29.94 in 10.0 mi WSW 3.5 mph - N/A   Scattered Clouds
6:33 AM 53.6 °F 37.4 °F 54% 29.94 in 10.0 mi West 4.6 mph - N/A   Clear
6:53 AM 53.6 °F 37.4 °F 54% 29.94 in 10.0 mi West 4.6 mph - N/A   Clear
7:13 AM 53.6 °F 37.4 °F 54% 29.95 in 10.0 mi WSW 4.6 mph - N/A   Clear
7:33 AM 55.4 °F 37.4 °F 51% 29.96 in 10.0 mi WSW 6.9 mph - N/A   Clear
7:53 AM 55.4 °F 37.4 °F 51% 29.97 in 10.0 mi SW 5.8 mph - N/A   Clear
8:13 AM 55.4 °F 37.4 °F 51% 29.97 in 10.0 mi SW 5.8 mph - N/A   Clear
8:33 AM 55.4 °F 39.2 °F 54% 29.97 in 10.0 mi SW 5.8 mph - N/A   Clear
8:53 AM 57.2 °F 39.2 °F 51% 29.98 in 10.0 mi SW 5.8 mph - N/A   Clear
9:13 AM 57.2 °F 37.4 °F 48% 29.99 in 10.0 mi West 5.8 mph - N/A   Clear
9:33 AM 59.0 °F 33.8 °F 39% 29.99 in 10.0 mi West 11.5 mph - N/A   Clear
9:52 AM 60.8 °F 33.8 °F 36% 29.99 in 10.0 mi WSW 6.9 mph 18.4 mph N/A   Clear
10:13 AM 60.8 °F 30.2 °F 31% 30.00 in 10.0 mi West 10.4 mph 20.7 mph N/A   Clear
10:33 AM 60.8 °F 28.4 °F 29% 30.01 in 10.0 mi West 15.0 mph 20.7 mph N/A   Clear
10:52 AM 60.8 °F 28.4 °F 29% 30.01 in 10.0 mi West 15.0 mph 27.6 mph N/A   Clear
11:13 AM 60.8 °F 28.4 °F 29% 30.01 in 10.0 mi West 11.5 mph 27.6 mph N/A   Clear
11:33 AM 62.6 °F 30.2 °F 30% 30.01 in 10.0 mi West 16.1 mph 23.0 mph N/A   Clear
11:52 AM 62.6 °F 28.4 °F 27% 30.01 in 10.0 mi West 15.0 mph 26.5 mph N/A   Clear
12:10 PM 62.6 °F 28.4 °F 27% 30.00 in 10.0 mi West 15.0 mph 25.3 mph N/A   Clear
12:33 PM 62.6 °F 26.6 °F 26% 30.01 in 10.0 mi West 13.8 mph 29.9 mph N/A   Clear
12:53 PM 64.4 °F 26.6 °F 24% 30.01 in 10.0 mi West 16.1 mph 31.1 mph N/A   Clear
1:12 PM 64.4 °F 24.8 °F 22% 30.01 in 10.0 mi West 20.7 mph 31.1 mph N/A   Clear
1:33 PM 64.4 °F 24.8 °F 22% 30.01 in 10.0 mi West 15.0 mph 26.5 mph N/A   Clear
1:52 PM 64.4 °F 28.4 °F 26% 30.01 in 10.0 mi WSW 13.8 mph 18.4 mph N/A   Clear
2:13 PM 64.4 °F 26.6 °F 24% 30.01 in 10.0 mi WSW 15.0 mph 25.3 mph N/A   Clear
2:33 PM 64.4 °F 28.4 °F 26% 30.00 in 10.0 mi WSW 16.1 mph 24.2 mph N/A   Clear
2:53 PM 64.4 °F 28.4 °F 26% 30.00 in 10.0 mi WSW 12.7 mph 25.3 mph N/A   Clear
3:13 PM 64.4 °F 28.4 °F 26% 30.00 in 10.0 mi WSW 13.8 mph 21.9 mph N/A   Clear
3:32 PM 64.4 °F 26.6 °F 24% 30.00 in 10.0 mi West 11.5 mph 23.0 mph N/A   Clear
3:53 PM 64.4 °F 24.8 °F 22% 30.00 in 10.0 mi West 17.3 mph 23.0 mph N/A   Clear
4:13 PM 64.4 °F 24.8 °F 22% 30.01 in 10.0 mi West 13.8 mph 24.2 mph N/A   Clear
4:53 PM 62.6 °F 26.6 °F 26% 30.02 in 10.0 mi WSW 10.4 mph 24.2 mph N/A   Clear
5:13 PM 62.6 °F 28.4 °F 27% 30.02 in 10.0 mi WSW 10.4 mph 18.4 mph N/A   Clear
5:33 PM 62.6 °F 30.2 °F 30% 30.02 in 10.0 mi WSW 10.4 mph 17.3 mph N/A   Clear
5:52 PM 62.6 °F 30.2 °F 30% 30.03 in 10.0 mi WSW 8.1 mph - N/A   Clear
6:13 PM 62.6 °F 30.2 °F 30% 30.04 in 10.0 mi WSW 9.2 mph - N/A   Clear
6:32 PM 60.8 °F 30.2 °F 31% 30.04 in 10.0 mi WSW 6.9 mph - N/A   Clear
6:53 PM 60.8 °F 33.8 °F 36% 30.05 in 10.0 mi WSW 4.6 mph - N/A   Clear
7:13 PM 59.0 °F 33.8 °F 39% 30.06 in 10.0 mi SW 4.6 mph - N/A   Clear
7:32 PM 57.2 °F 33.8 °F 41% 30.06 in 10.0 mi SSW 4.6 mph - N/A   Clear
7:53 PM 55.4 °F 32.0 °F 41% 30.07 in 10.0 mi SSW 6.9 mph - N/A   Clear
8:13 PM 57.2 °F 30.2 °F 36% 30.08 in 10.0 mi SSW 5.8 mph - N/A   Clear
8:32 PM 55.4 °F 30.2 °F 38% 30.08 in 10.0 mi SSW 4.6 mph - N/A   Clear
8:53 PM 55.4 °F 30.2 °F 38% 30.09 in 10.0 mi SSW 5.8 mph - N/A   Clear
9:13 PM 55.4 °F 30.2 °F 38% 30.09 in 10.0 mi SW 5.8 mph - N/A   Clear
9:32 PM 55.4 °F 30.2 °F 38% 30.09 in 10.0 mi SW 4.6 mph - N/A   Clear
9:53 PM 53.6 °F 30.2 °F 41% 30.09 in 10.0 mi SW 5.8 mph - N/A   Clear
10:13 PM 53.6 °F 32.0 °F 44% 30.10 in 10.0 mi SW 5.8 mph - N/A   Clear
10:32 PM 51.8 °F 32.0 °F 47% 30.11 in 10.0 mi SW 4.6 mph - N/A   Clear
10:53 PM 51.8 °F 33.8 °F 50% 30.11 in 10.0 mi SW 4.6 mph - N/A   Clear
11:13 PM 51.8 °F 33.8 °F 50% 30.11 in 10.0 mi WSW 5.8 mph - N/A   Clear
11:33 PM 51.8 °F 32.0 °F 47% 30.12 in 10.0 mi SW 4.6 mph - N/A   Clear
11:53 PM 51.8 °F 32.0 °F 47% 30.12 in 10.0 mi WSW 4.6 mph - N/A   Clear